Location: Dötzum
(52.0808°N, 9.8063°E)
Time: 05:18:02
(UTC+00:00)

Cosmos 2154 Rocket - Pass Details

Date: 27 May 2022
Orbit: 966 x 996 km, 82.9° (Epoch: 24 June)

Event Time Altitude Azimuth Distance (km) Brightness Sun altitude
Rises 01:21:17 0° 349° (NNW) 3,729 7.9 -11.9°
Reaches altitude 10° 01:23:50 10° 349° (N) 2,774 7.1 -11.7°
Maximum altitude 01:30:13 85° 262° (W) 1,003 4.0 -11.2°
Drops below altitude 10° 01:36:31 10° 175° (S) 2,739 5.9 -10.7°
Enters shadow 01:37:42 - 174° (S) 3,185 6.2 -10.6°
